Lapse_Rate
8.4 8.8 8.8 8.5 8.7 9.0 8.8 8.7 8.7 8.6 8.5 8.6 8.5 8.4 8.1 8.1 8.3 8.2 8.2 7.7 7.4 7.1 6.9 6.7 6.8 6.6 6.0 5.9 5.9 6.0 6.3 5.6 5.8 5.4 5.6 5.7 5.9 6.2 5.9 5.7 5.6 5.7 5.7 5.9
8.1 8.6 8.9 8.5 8.7 8.8 8.7 8.6 8.6 8.6 8.5 8.7 8.9 8.5 8.4 8.5 8.7 8.4 8.1 8.1 7.4 7.2 6.8 6.5 6.5 6.5 6.1 5.8 6.0 6.1 6.0 6.1 6.3 6.0 5.7 5.8 6.1 6.2 6.1 5.9 5.8 5.9 5.8 6.0
7.9 8.3 8.7 8.7 8.6 8.6 8.6 8.6 8.6 8.5 8.4 8.7 8.8 8.8 8.7 8.5 8.6 8.4 8.2 7.9 7.7 7.3 7.0 6.8 6.5 6.5 6.2 5.9 5.9 5.9 6.2 6.2 6.2 6.2 6.2 6.3 6.2 6.0 6.0 6.0 5.9 5.8 5.7 5.8
7.6 8.0 8.5 8.9 8.7 8.5 8.5 8.5 8.5 8.5 8.4 8.3 8.6 9.0 9.0 8.7 8.6 8.6 8.2 7.9 7.5 7.1 6.9 6.8 6.4 6.3 6.0 5.9 5.9 6.0 6.0 6.4 6.6 6.5 6.5 6.6 6.5 6.3 6.1 5.9 5.8 5.7 5.7 5.8
7.7 7.9 8.1 8.7 8.5 8.4 8.3 8.5 8.3 8.7 8.6 8.7 8.5 8.2 9.0 8.7 8.5 8.4 8.1 7.8 7.6 7.2 6.9 6.6 6.6 6.4 6.6 6.4 6.2 6.3 6.5 6.8 6.9 6.8 6.8 6.6 6.5 6.4 6.4 6.2 5.9 5.8 5.7 5.9
7.8 8.0 8.1 8.4 8.4 8.5 8.7 8.7 8.8 8.7 8.8 9.2 8.2 7.5 8.8 8.6 8.4 8.4 8.0 8.0 7.8 7.6 7.3 6.9 6.8 6.7 6.7 6.6 6.5 6.6 6.6 6.7 6.8 6.8 6.8 6.8 6.7 6.5 6.4 6.2 6.1 6.0 5.9 5.9
7.6 7.7 7.8 8.0 8.2 8.5 8.8 8.8 8.9 9.2 9.0 8.9 8.1 7.4 8.7 8.8 8.6 8.5 8.2 8.0 7.6 7.6 7.4 7.4 7.0 7.1 6.9 6.9 6.7 6.6 6.7 6.6 6.6 6.8 6.9 6.7 6.8 6.5 6.5 6.7 6.5 6.4 6.2 6.1
7.6 7.8 7.8 7.8 8.0 8.4 8.8 9.0 9.1 8.6 8.9 8.6 8.2 8.0 8.9 9.0 8.9 8.7 8.4 8.3 8.0 7.5 7.1 7.3 7.1 7.0 7.1 6.9 6.9 7.2 7.0 7.1 7.0 6.8 7.1 6.8 6.4 6.6 6.7 6.6 6.4 6.4 6.2 6.0
7.5 7.6 7.7 7.9 8.1 8.6 8.7 8.9 8.8 8.6 8.4 8.0 8.4 8.4 8.8 9.1 9.1 8.9 8.5 8.1 7.7 6.8 6.6 6.9 6.9 6.9 6.7 7.0 7.2 7.5 7.4 7.2 7.5 7.4 6.8 6.6 6.7 6.9 6.9 6.7 6.5 6.2 5.9 6.0
7.6 7.7 7.7 7.6 8.1 8.5 8.6 9.0 9.0 8.7 8.7 8.5 8.6 7.6 8.7 9.1 9.0 9.3 8.7 8.2 7.8 7.1 6.8 6.5 6.6 6.8 6.9 6.9 7.1 7.5 7.3 7.4 7.1 6.8 6.7 6.8 7.0 6.9 6.8 6.6 6.4 6.2 6.1 5.9
7.6 7.6 7.7 7.7 7.8 8.3 8.5 8.6 9.1 9.0 8.6 9.3 9.0 8.8 9.1 9.3 9.0 9.2 8.7 8.2 7.7 7.5 7.1 6.8 6.5 6.5 6.7 6.8 6.9 7.1 7.0 6.7 6.9 6.8 6.6 6.9 7.0 6.6 6.5 6.5 6.4 6.1 5.9 6.1
7.8 7.9 7.9 7.9 8.1 8.3 8.4 8.5 9.2 9.3 8.9 8.4 8.2 8.8 9.4 9.4 9.3 9.3 8.9 8.2 7.9 7.6 7.5 7.1 6.6 6.3 6.4 6.6 6.8 6.6 6.7 6.6 6.9 6.8 6.6 6.9 6.7 6.3 6.3 6.3 6.4 6.3 6.1 5.9
8.5 8.2 8.3 8.2 8.1 8.0 8.3 8.7 9.2 9.2 9.3 8.7 8.9 9.2 9.5 9.2 9.5 9.3 9.4 8.4 8.1 7.7 7.7 7.5 7.3 6.9 6.4 6.5 6.6 6.9 6.7 6.7 6.7 6.7 6.5 6.6 6.4 6.3 6.1 6.0 6.0 6.1 6.0 6.0
8.7 8.7 8.8 9.0 9.0 9.1 9.1 9.2 9.5 9.3 8.9 9.1 9.0 9.1 9.4 9.4 9.5 9.3 9.5 9.1 8.3 7.8 7.5 7.4 7.6 7.5 7.3 7.0 6.7 6.6 6.5 6.5 6.6 6.6 6.5 6.6 6.4 6.2 6.0 5.9 5.8 5.8 5.9 6.1
9.0 9.0 9.0 9.1 9.2 9.5 9.4 9.4 9.3 9.3 9.3 9.3 9.4 9.2 9.4 9.5 9.4 9.4 9.5 9.3 8.6 8.2 7.6 7.4 7.5 7.5 7.3 7.2 7.2 7.2 7.1 6.8 6.4 6.5 6.4 6.3 6.3 6.1 6.1 5.9 5.8 5.7 5.8 6.0
8.6 8.9 9.0 9.1 9.4 9.1 9.0 9.2 9.3 9.2 9.1 9.2 9.3 9.3 9.4 9.6 9.4 9.6 9.7 9.5 8.8 8.4 7.8 7.5 7.3 7.4 7.3 7.3 7.2 7.1 7.0 7.2 6.8 6.2 6.0 5.9 6.0 6.2 6.3 6.3 6.0 5.9 5.8 5.8
8.7 8.7 9.0 9.0 9.1 9.0 8.9 9.2 9.2 9.3 9.2 9.2 9.3 9.2 9.3 9.4 9.5 9.6 9.6 9.5 8.8 8.6 8.1 7.7 7.6 7.2 7.2 7.3 7.2 7.1 7.0 6.9 6.9 6.4 6.1 6.1 6.1 6.1 6.3 6.4 6.4 6.6 6.2 6.2
8.8 8.7 8.8 9.0 8.6 8.8 9.1 9.2 9.2 9.2 9.2 9.2 9.2 9.2 9.2 9.3 9.4 9.6 9.5 9.4 8.8 8.4 8.1 7.8 7.5 7.3 7.0 7.0 7.1 7.1 7.3 7.6 7.0 6.6 6.5 6.1 6.1 6.3 6.3 6.5 6.5 6.3 6.3 6.4
8.4 8.6 8.7 8.7 8.7 8.6 8.9 9.2 9.2 9.2 9.3 9.5 9.1 9.0 9.0 9.2 9.3 9.4 9.5 9.4 8.8 8.4 8.1 7.9 7.7 7.5 7.1 7.3 7.1 7.2 7.2 7.0 6.8 6.8 6.7 6.5 6.4 6.4 6.4 6.6 6.4 6.1 6.2 6.2
8.1 8.2 8.4 8.6 8.7 9.1 9.1 9.3 9.3 9.1 9.0 9.4 9.1 8.9 9.1 9.1 9.2 9.4 9.3 9.1 8.7 8.4 8.0 7.9 7.8 7.5 7.3 7.1 7.5 7.4 7.1 6.9 6.6 6.8 7.0 6.8 6.6 6.7 6.5 6.4 6.4 6.4 6.2 6.2
7.9 8.1 8.1 8.4 8.5 8.8 9.0 9.1 9.0 8.7 9.3 9.3 9.1 9.2 9.2 9.2 9.1 9.2 9.2 9.0 8.6 8.7 8.3 7.8 7.9 7.5 7.3 7.3 7.1 6.7 6.7 6.5 6.5 6.5 6.7 6.7 6.5 6.2 6.1 6.1 6.0 6.0 6.0 6.1
8.0 8.0 7.9 7.9 8.0 8.3 8.7 8.9 8.8 9.1 9.2 9.0 8.9 8.9 8.8 8.5 8.5 8.7 9.0 8.8 8.5 8.5 8.3 8.1 8.0 7.4 6.9 7.1 6.9 6.4 6.5 6.3 6.3 6.3 6.4 6.3 6.2 6.1 6.1 5.9 5.9 6.0 5.9 6.1
7.6 7.9 7.9 8.0 8.3 8.5 8.3 8.2 8.4 8.7 8.8 8.8 8.8 8.6 8.4 8.4 8.5 8.6 8.6 8.5 8.6 8.5 8.3 8.2 7.8 7.5 7.4 7.3 7.4 6.9 6.6 6.4 6.4 6.5 6.6 6.5 6.4 6.4 6.2 5.9 5.9 6.0 6.0 6.1
7.5 7.5 7.4 7.8 8.0 8.1 8.0 8.1 8.0 8.0 8.1 8.3 8.4 8.4 8.5 8.3 8.2 8.6 8.7 8.7 8.4 8.1 7.9 7.6 7.6 7.6 7.3 7.2 7.2 6.9 7.0 6.7 6.7 6.8 6.3 6.2 6.2 6.2 6.1 6.0 6.1 6.0 6.1 5.9
7.2 7.4 7.3 7.6 7.7 7.8 7.7 7.7 7.6 7.7 7.8 8.2 8.3 8.3 8.3 8.0 8.1 8.0 8.0 7.8 7.6 7.6 7.4 7.4 7.4 7.2 7.1 7.1 7.1 7.0 6.8 6.6 6.7 6.8 6.6 6.2 6.0 6.0 6.0 6.1 6.1 6.0 5.7 5.9
7.6 7.8 7.8 7.7 7.7 7.5 7.5 7.4 7.4 7.3 7.6 7.8 7.5 7.7 7.6 7.8 7.7 7.8 7.8 7.7 7.5 7.4 7.2 7.2 7.1 7.1 7.0 7.1 7.3 7.0 6.8 6.7 6.5 6.3 6.0 5.9 6.0 6.1 6.1 5.9 5.7 5.7 5.9 5.7
Wind_Speed
3 3 6 5 2 3 3 3 2 3 3 7 13 13 11 17 17 18 17 15 15 15 12 12 11 9 8 7 8 8 10 8 6 5 5 3 4 3 4 6 6 5 7 8
3 5 2 4 5 5 3 4 2 1 2 5 4 10 8 17 22 20 19 17 17 13 12 14 12 10 9 9 8 9 8 9 8 5 3 2 2 3 3 4 5 7 8 9
7 5 6 1 3 2 2 3 4 5 2 1 6 5 5 7 14 14 16 16 16 18 16 13 13 11 9 10 10 10 10 7 6 6 3 3 2 1 2 2 2 3 4 4
4 2 5 3 2 1 3 2 4 6 6 3 4 6 4 4 9 16 15 17 17 17 14 13 12 12 11 11 9 8 8 7 6 6 7 6 4 4 1 3 1 2 1 3
5 7 5 2 3 3 2 1 1 3 1 2 4 4 4 1 5 9 14 15 15 14 14 14 13 12 11 9 8 8 8 7 9 7 8 7 6 3 0 2 2 1 1 0
4 1 1 3 2 1 2 2 3 2 2 4 5 4 7 2 2 3 6 11 12 12 11 12 12 10 11 8 6 8 9 8 9 7 8 9 7 3 2 3 1 2 4 4
2 3 1 2 2 2 1 2 2 1 2 3 5 5 9 6 5 2 4 7 8 9 12 12 13 12 12 11 8 7 6 5 6 7 7 6 5 2 2 3 3 4 3 3
10 11 6 5 6 3 1 2 1 3 2 5 2 5 6 1 6 4 2 4 8 10 11 13 13 13 13 12 9 8 5 3 5 6 6 4 4 3 4 5 5 4 4 3
5 5 2 7 6 7 5 4 1 3 1 3 1 7 13 5 3 7 5 7 9 10 11 13 14 14 13 13 11 11 12 11 7 5 5 6 6 6 7 7 5 5 4 4
6 3 3 2 4 5 5 10 3 0 3 6 4 5 9 9 6 8 7 8 10 10 12 13 13 14 12 11 10 11 7 7 9 6 6 6 7 7 8 7 6 4 4 4
7 4 3 3 7 9 5 4 2 1 3 6 8 5 6 9 11 11 11 10 11 12 13 14 14 12 12 12 10 8 4 9 9 9 8 8 7 6 6 5 5 4 3 3
9 4 8 14 1 4 4 7 8 6 5 3 4 8 2 7 8 9 12 11 11 11 12 12 13 14 13 13 11 10 7 7 9 9 9 9 8 6 5 4 4 3 3 1
10 6 10 8 4 2 6 6 6 2 1 9 5 7 3 4 8 8 12 12 12 13 14 13 12 13 13 13 12 11 10 9 10 9 8 8 8 7 5 3 3 3 2 2
9 5 9 10 7 3 5 7 8 9 4 5 6 12 11 8 9 8 12 13 14 12 14 14 14 14 14 14 13 12 9 9 10 10 9 8 7 6 5 5 3 4 4 4
6 5 4 7 3 8 6 10 12 11 9 6 5 6 14 6 6 12 15 15 15 15 15 14 15 13 12 13 13 12 12 12 10 9 9 8 7 5 3 3 2 2 2 1
0 1 2 5 6 8 6 8 13 13 8 13 8 13 4 3 2 8 14 17 18 17 17 16 13 13 12 11 11 11 10 10 11 9 8 7 5 5 4 3 2 2 2 2
2 4 3 3 1 7 5 12 9 5 6 6 7 9 9 12 8 7 14 18 20 19 17 16 15 13 12 12 12 12 12 10 9 8 8 8 6 5 3 2 2 2 2 0
2 2 1 1 3 6 2 3 3 7 9 10 13 13 12 12 9 5 12 19 19 17 15 14 13 13 11 11 10 10 10 11 9 8 8 7 6 5 5 3 3 3 3 2
1 2 1 3 6 2 2 5 7 8 5 12 10 7 6 4 4 3 11 14 14 14 14 14 13 13 13 11 12 10 9 9 9 10 8 8 7 5 3 2 3 4 3 2
3 2 3 1 4 7 3 4 2 2 8 11 6 5 4 3 6 3 12 13 12 12 11 13 15 14 15 12 16 14 12 12 10 9 9 8 6 4 4 5 6 4 3 1
2 1 5 4 5 4 3 6 5 5 4 4 2 3 3 3 4 4 8 10 10 12 14 13 14 12 10 12 14 13 11 11 10 8 6 6 6 5 4 5 4 3 3 2
4 5 4 2 3 7 2 6 4 6 5 5 3 2 1 2 3 2 5 7 10 10 10 10 8 8 8 10 11 12 12 9 8 7 7 7 6 5 4 5 4 3 3 3
4 3 2 5 1 1 0 5 6 2 3 5 4 1 3 3 3 2 6 10 9 12 12 10 9 11 8 9 10 10 9 9 9 8 7 7 6 5 5 5 4 3 3 3
3 3 3 3 2 3 4 5 6 2 3 2 2 4 5 5 4 7 10 10 10 10 11 8 8 7 7 8 9 9 10 9 8 7 6 5 5 5 5 4 4 4 4 4
2 5 3 5 7 5 2 3 5 1 2 3 4 3 6 10 9 11 12 11 10 9 10 9 8 6 7 9 9 9 10 9 8 7 6 5 5 5 4 5 5 6 7 6
4 2 3 1 1 2 4 8 2 5 3 4 4 8 5 10 14 14 12 10 10 10 8 8 8 12 11 12 10 9 9 9 8 6 5 4 4 4 3 4 6 10 11 8
Wind_Direction
38 142 102 118 170 97 155 236 236 256 212 208 232 251 214 207 210 212 209 205 214 219 205 194 188 196 189 182 197 185 169 178 181 178 202 207 231 221 223 234 225 231 241 229
135 112 125 113 128 83 19 308 339 261 108 222 288 270 246 206 216 215 214 208 214 211 206 205 206 199 192 199 199 196 183 165 185 197 189 193 208 224 247 264 255 231 227 238
166 129 139 140 129 356 3 29 338 333 333 156 301 271 238 227 228 228 233 231 223 217 206 194 196 205 203 209 195 196 198 173 189 196 187 159 142 234 241 193 307 282 250 246
148 134 157 133 68 154 321 218 309 328 341 330 331 324 277 226 244 227 230 224 228 224 214 198 194 196 197 197 188 179 198 208 202 203 224 209 227 251 349 38 5 319 18 44
154 167 160 159 86 178 356 178 358 12 316 309 23 294 288 258 301 249 223 227 222 224 216 197 192 190 186 184 178 179 190 212 223 212 220 207 226 245 126 96 156 222 95 166
126 217 165 95 93 135 80 251 55 92 346 272 13 306 293 312 321 354 223 223 219 220 196 183 184 175 172 174 167 161 173 193 190 205 209 210 226 215 176 145 263 52 85 67
129 165 111 165 198 124 176 20 356 272 11 329 342 281 271 300 299 262 170 156 170 171 158 158 165 165 167 174 168 154 170 173 179 189 200 204 221 125 163 180 120 130 120 86
217 221 191 165 232 257 127 276 218 272 291 306 345 261 296 309 329 193 159 132 146 154 153 156 159 160 164 160 149 135 138 155 165 183 182 163 150 147 121 112 110 107 111 102
169 235 229 229 183 199 156 210 96 166 83 275 250 277 279 277 186 182 157 141 160 159 155 156 162 165 166 162 156 166 159 146 150 166 133 125 130 127 111 107 108 107 108 117
188 217 200 128 149 68 234 141 182 213 240 280 268 278 261 292 225 180 176 166 163 162 159 158 162 163 160 164 167 179 183 136 119 116 130 135 129 126 121 110 91 80 94 97
154 230 138 178 203 193 162 192 83 185 236 272 281 262 232 255 278 186 187 176 165 170 169 164 157 161 158 160 175 185 129 113 132 149 139 133 120 108 100 102 93 75 51 76
189 201 231 237 116 326 218 235 194 233 227 229 292 272 170 250 279 175 192 173 164 160 160 161 156 161 165 167 167 166 168 143 141 140 141 131 123 114 105 90 88 72 60 44
172 213 237 243 187 150 224 197 198 139 146 234 255 268 154 240 267 179 192 176 167 158 151 155 161 165 172 170 164 158 169 162 145 148 142 138 131 132 117 101 79 77 90 67
178 172 213 243 240 148 194 190 189 204 201 175 228 280 277 219 230 201 191 187 172 169 163 162 166 173 170 167 164 172 166 161 151 151 148 136 145 143 146 140 151 159 151 138
198 232 213 254 267 215 191 174 177 206 236 249 321 234 267 344 228 217 194 189 177 174 172 177 174 174 169 166 166 163 163 159 157 151 149 155 148 137 154 146 159 170 176 170
319 230 204 259 199 206 223 220 198 218 238 255 262 269 285 349 323 211 192 187 190 183 184 179 182 172 174 162 158 156 153 154 156 159 154 130 138 169 175 134 166 151 197 178
211 169 174 245 313 164 212 210 195 201 224 262 231 276 326 298 305 231 197 187 199 190 189 181 178 174 174 168 160 157 157 153 160 154 146 156 166 178 174 157 166 137 232 235
165 135 210 149 162 218 65 123 197 230 256 236 266 280 297 295 295 242 191 193 194 193 180 175 176 170 162 158 159 157 160 159 157 161 164 159 164 179 189 187 184 218 235 210
39 151 240 224 208 328 228 219 191 199 252 212 239 276 290 319 220 186 197 207 193 191 182 178 172 153 157 157 156 155 158 154 176 174 167 168 179 185 200 218 234 241 243 245
77 88 236 171 238 229 234 175 130 219 260 177 199 253 244 179 254 155 183 174 169 172 172 168 155 164 161 164 156 153 174 172 184 183 182 173 168 185 220 227 223 210 220 222
197 212 243 230 254 275 231 152 142 213 351 90 247 206 235 233 282 1 164 162 170 161 163 159 164 167 151 161 164 157 167 185 184 184 172 159 175 199 219 226 231 233 246 285
213 195 204 173 229 267 67 131 222 1 358 15 337 321 194 160 261 270 144 133 145 134 133 145 138 116 148 162 162 160 181 175 163 163 171 176 183 199 197 214 221 223 241 252
242 244 279 234 256 129 260 276 300 277 347 14 355 276 189 205 272 1 122 117 117 125 125 131 137 133 145 160 167 158 161 162 163 173 179 185 185 193 199 211 216 238 213 253
214 172 254 307 76 284 270 252 263 314 350 349 99 197 220 189 178 115 111 108 114 116 115 114 109 123 133 156 164 179 163 166 173 176 184 186 203 204 214 224 224 244 245 245
12 168 220 253 281 300 56 337 283 224 155 95 76 107 160 156 138 120 122 117 120 120 119 129 130 149 153 160 165 167 156 166 178 174 173 202 223 225 236 245 256 247 250 251
186 245 236 342 94 270 291 328 282 204 182 126 108 90 88 150 126 119 114 123 128 127 127 125 145 149 159 158 157 145 162 169 166 171 187 218 238 236 246 260 262 221 248 262